Regional Weather Roundup
Issued by NWS Cleveland, OH

Home | Current Version | Previous Version | Graphics & Text | Print | Product List | Glossary On
Versions: 1 2 3 4 5 6 7 8 9 10 11 12 13 14 15 16 17 18 19 20 21 22 23 24 25 26 27 28 29 30 31 32 33 34 35 36 37 38 39 40 41 42 43 44 45 46 47 48 49 50
000
ASUS41 KCLE 232110
RWRCLE
OHIO REGIONAL WEATHER ROUNDUP
NATIONAL WEATHER SERVICE WILMINGTON, OH
500 PM EDT SAT SEP 23 2017

NOTE: "FAIR" INDICATES FEW OR NO CLOUDS BELOW 12,000 FEET WITH NO
SIGNIFICANT WEATHER AND/OR OBSTRUCTIONS TO VISIBILITY.

OHZ001>008-015>018-024>027-034-035-043-044-232200-
   NORTHWEST OHIO

CITY           SKY/WX    TMP DP  RH WIND       PRES   REMARKS
DEFIANCE       FAIR      89  60  37 E8        30.08F
FINDLAY        FAIR      90  60  36 E9        30.09F
TOLEDO EXPRESS FAIR      90  65  43 E10       30.09F HX  92
TOLEDO EXEC    FAIR      87  61  41 E8        30.11F
LIMA           FAIR      89  58  34 NE9       30.09F
$$

OHZ009>014-019>023-028>033-038-089-232200-
   NORTHEAST OHIO

CITY           SKY/WX    TMP DP  RH WIND       PRES   REMARKS
CLE-HOPKINS    FAIR      90  50  25 N10       30.13F
CLE-LAKEFRONT  FAIR      79  63  57 N5        30.11F
CUY CO. ARPT   SUNNY     88  57  35 N10       30.13F
LORAIN-ELYRIA  FAIR      86  51  29 NE9       30.12F
ASHTABULA      FAIR      85  58  39 VRB6      30.14F
AKRON-CANTON   FAIR      89  57  33 NE9       30.12F
WOOSTER        FAIR      89  58  34 NE8       30.12F
MANSFIELD      FAIR      88  58  36 NE10      30.13F
YOUNGSTOWN     FAIR      88  59  37 NE12      30.13F
$$

OHZ042-051>053-060>062-070>072-077>081-232200-
  SOUTHWEST OHIO

CITY           SKY/WX    TMP DP  RH WIND       PRES   REMARKS
CINC-COVINGTON FAIR      90  65  43 N8        30.07F HX  92
CINC-LUNKEN    FAIR      90  65  43 E7        30.06F HX  92
HAMILTON       FAIR      89  66  46 VRB3      30.07F HX  91
DAYTON         FAIR      89  61  38 NE10      30.09F
WRIGHT-PAT AFB FAIR      90  57  33 NE7       30.07F
DAYTON GENERAL FAIR      89  62  40 SE6       30.07F
WILMINGTON     FAIR      88  62  41 NE8       30.08F
$$

OHZ036-037-039>041-045>050-054>059-063>069-073>076-082>088-232200-
  CENTRAL AND SOUTHEAST OHIO

CITY           SKY/WX    TMP DP  RH WIND       PRES   REMARKS
COLUMBUS       FAIR      90  58  33 E5        30.07F
OSU AIRPORT    FAIR      89  61  38 E10       30.08F
BOLTON FIELD   SUNNY     90  61  37 NE6       30.09F
RICKENBACK AFB FAIR      85  58  39 E7        30.08R
NEWARK         FAIR      90  56  31 E8        30.08F
MARION         FAIR      91  55  29 NE9       30.10F
LANCASTER      FAIR      85  61  44 E7        30.10S
ZANESVILLE     FAIR      90  52  27 NE7       30.09F
NEW PHILLY     FAIR      91  56  30 E7        30.11S
$$




USA.gov is the U.S. government's official web portal to all federal, state and local government web resources and services.